Year,Month,Day,Hour,Minute,Value (Times are PST for temperature in C)
2007,05,24,00,00,9.10
2007,05,24,00,01,9.10
2007,05,24,00,02,9.10
2007,05,24,00,03,9.10
2007,05,24,00,04,9.00
2007,05,24,00,05,8.90
2007,05,24,00,06,8.90
2007,05,24,00,07,8.90
2007,05,24,00,08,8.80
2007,05,24,00,09,8.80
2007,05,24,00,10,8.70
2007,05,24,00,11,8.70
2007,05,24,00,12,8.60
2007,05,24,00,13,8.60
2007,05,24,00,14,8.60
2007,05,24,00,15,8.50
2007,05,24,00,16,8.50
2007,05,24,00,17,8.40
2007,05,24,00,18,8.40
2007,05,24,00,19,8.40
2007,05,24,00,20,8.40
2007,05,24,00,21,8.50
2007,05,24,00,22,8.50
2007,05,24,00,23,8.60
2007,05,24,00,24,8.60
2007,05,24,00,25,8.70
2007,05,24,00,26,8.70
2007,05,24,00,27,8.80
2007,05,24,00,28,8.80
2007,05,24,00,29,8.90
2007,05,24,00,30,8.90
2007,05,24,00,31,8.90
2007,05,24,00,32,8.90
2007,05,24,00,33,8.90
2007,05,24,00,34,9.00
2007,05,24,00,35,9.00
2007,05,24,00,36,9.00
2007,05,24,00,37,9.10
2007,05,24,00,38,9.10
2007,05,24,00,39,9.10
2007,05,24,00,40,9.10
2007,05,24,00,41,9.20
2007,05,24,00,42,9.20
2007,05,24,00,43,9.20
2007,05,24,00,44,9.20
2007,05,24,00,45,9.20
2007,05,24,00,46,9.20
2007,05,24,00,47,9.20
2007,05,24,00,48,9.30
2007,05,24,00,49,9.30
2007,05,24,00,50,9.30
2007,05,24,00,51,9.30
2007,05,24,00,52,9.30
2007,05,24,00,53,9.30
2007,05,24,00,54,9.30
2007,05,24,00,55,9.30
2007,05,24,00,56,9.30
2007,05,24,00,57,9.30
2007,05,24,00,58,9.30
2007,05,24,00,59,9.30
2007,05,24,01,00,9.30
2007,05,24,01,01,9.30
2007,05,24,01,02,9.30
2007,05,24,01,03,9.30
2007,05,24,01,04,9.30
2007,05,24,01,05,9.30
2007,05,24,01,06,9.30
2007,05,24,01,07,9.30
2007,05,24,01,08,9.30
2007,05,24,01,09,9.30
2007,05,24,01,10,9.30
2007,05,24,01,11,9.30
2007,05,24,01,12,9.20
2007,05,24,01,13,9.20
2007,05,24,01,14,9.10
2007,05,24,01,15,9.10
2007,05,24,01,16,9.10
2007,05,24,01,17,9.10
2007,05,24,01,18,9.10
2007,05,24,01,19,9.00
2007,05,24,01,20,9.00
2007,05,24,01,21,8.90
2007,05,24,01,22,8.90
2007,05,24,01,23,8.80
2007,05,24,01,24,8.80
2007,05,24,01,25,8.70
2007,05,24,01,26,8.60
2007,05,24,01,27,8.60
2007,05,24,01,28,8.60
2007,05,24,01,29,8.50
2007,05,24,01,30,8.50
2007,05,24,01,31,8.40
2007,05,24,01,32,8.40
2007,05,24,01,33,8.40
2007,05,24,01,34,8.40
2007,05,24,01,35,8.50
2007,05,24,01,36,8.50
2007,05,24,01,37,8.50
2007,05,24,01,38,8.60
2007,05,24,01,39,8.60
2007,05,24,01,40,8.70
2007,05,24,01,41,8.70
2007,05,24,01,42,8.70
2007,05,24,01,43,8.70
2007,05,24,01,44,8.70
2007,05,24,01,45,8.70
2007,05,24,01,46,8.70
2007,05,24,01,47,8.70
2007,05,24,01,48,8.70
2007,05,24,01,49,8.70
2007,05,24,01,50,8.60
2007,05,24,01,51,8.60
2007,05,24,01,52,8.60
2007,05,24,01,53,8.50
2007,05,24,01,54,8.50
2007,05,24,01,55,8.50
2007,05,24,01,56,8.40
2007,05,24,01,57,8.40
2007,05,24,01,58,8.40
2007,05,24,01,59,8.30
2007,05,24,02,00,8.30
2007,05,24,02,01,8.30
2007,05,24,02,02,8.20
2007,05,24,02,03,8.20
2007,05,24,02,04,8.20
2007,05,24,02,05,8.10
2007,05,24,02,06,8.10
2007,05,24,02,07,8.10
2007,05,24,02,08,8.00
2007,05,24,02,09,8.00
2007,05,24,02,10,7.90
2007,05,24,02,11,7.80
2007,05,24,02,12,7.80
2007,05,24,02,13,7.70
2007,05,24,02,14,7.70
2007,05,24,02,15,7.60
2007,05,24,02,16,7.60
2007,05,24,02,17,7.60
2007,05,24,02,18,7.50
2007,05,24,02,19,7.50
2007,05,24,02,20,7.50
2007,05,24,02,21,7.40
2007,05,24,02,22,7.40
2007,05,24,02,23,7.40
2007,05,24,02,24,7.30
2007,05,24,02,25,7.30
2007,05,24,02,26,7.30
2007,05,24,02,27,7.30
2007,05,24,02,28,7.20
2007,05,24,02,29,7.20
2007,05,24,02,30,7.20
2007,05,24,02,31,7.20
2007,05,24,02,32,7.20
2007,05,24,02,33,7.20
2007,05,24,02,34,7.20
2007,05,24,02,35,7.10
2007,05,24,02,36,7.10
2007,05,24,02,37,7.10
2007,05,24,02,38,7.10
2007,05,24,02,39,7.00
2007,05,24,02,40,7.00
2007,05,24,02,41,7.00
2007,05,24,02,42,7.00
2007,05,24,02,43,6.90
2007,05,24,02,44,6.90
2007,05,24,02,45,6.90
2007,05,24,02,46,6.90
2007,05,24,02,47,6.90
2007,05,24,02,48,6.90
2007,05,24,02,49,6.90
2007,05,24,02,50,7.00
2007,05,24,02,51,7.00
2007,05,24,02,52,7.00
2007,05,24,02,53,7.00
2007,05,24,02,54,7.00
2007,05,24,02,55,7.10
2007,05,24,02,56,7.10
2007,05,24,02,57,7.00
2007,05,24,02,58,7.00
2007,05,24,02,59,7.00
2007,05,24,03,00,7.00
2007,05,24,03,01,7.00
2007,05,24,03,02,6.90
2007,05,24,03,03,6.90
2007,05,24,03,04,6.90
2007,05,24,03,05,6.90
2007,05,24,03,06,6.90
2007,05,24,03,07,6.90
2007,05,24,03,08,6.80
2007,05,24,03,09,6.80
2007,05,24,03,10,6.80
2007,05,24,03,11,6.80
2007,05,24,03,12,6.80
2007,05,24,03,13,6.70
2007,05,24,03,14,6.70
2007,05,24,03,15,6.70
2007,05,24,03,16,6.70
2007,05,24,03,17,6.70
2007,05,24,03,18,6.70
2007,05,24,03,19,6.70
2007,05,24,03,20,6.70
2007,05,24,03,21,6.60
2007,05,24,03,22,6.60
2007,05,24,03,23,6.60
2007,05,24,03,24,6.60
2007,05,24,03,25,6.60
2007,05,24,03,26,6.60
2007,05,24,03,27,6.60
2007,05,24,03,28,6.50
2007,05,24,03,29,6.50
2007,05,24,03,30,6.50
2007,05,24,03,31,6.50
2007,05,24,03,32,6.50
2007,05,24,03,33,6.40
2007,05,24,03,34,6.40
2007,05,24,03,35,6.40
2007,05,24,03,36,6.50
2007,05,24,03,37,6.50
2007,05,24,03,38,6.50
2007,05,24,03,39,6.60
2007,05,24,03,40,6.60
2007,05,24,03,41,6.70
2007,05,24,03,42,6.70
2007,05,24,03,43,6.70
2007,05,24,03,44,6.80
2007,05,24,03,45,6.90
2007,05,24,03,46,7.00
2007,05,24,03,47,7.00
2007,05,24,03,48,7.10
2007,05,24,03,49,7.20
2007,05,24,03,50,7.20
2007,05,24,03,51,7.20
2007,05,24,03,52,7.20
2007,05,24,03,53,7.20
2007,05,24,03,54,7.20
2007,05,24,03,55,7.10
2007,05,24,03,56,7.10
2007,05,24,03,57,7.10
2007,05,24,03,58,7.10
2007,05,24,03,59,7.10
2007,05,24,04,00,7.00
2007,05,24,04,01,7.00
2007,05,24,04,02,6.90
2007,05,24,04,03,6.90
2007,05,24,04,04,6.80
2007,05,24,04,05,6.80
2007,05,24,04,06,6.80
2007,05,24,04,07,6.70
2007,05,24,04,08,6.70
2007,05,24,04,09,6.60
2007,05,24,04,10,6.60
2007,05,24,04,11,6.60
2007,05,24,04,12,6.50
2007,05,24,04,13,6.50
2007,05,24,04,14,6.50
2007,05,24,04,15,6.40
2007,05,24,04,16,6.40
2007,05,24,04,17,6.40
2007,05,24,04,18,6.30
2007,05,24,04,19,6.30
2007,05,24,04,20,6.30
2007,05,24,04,21,6.30
2007,05,24,04,22,6.30
2007,05,24,04,23,6.30
2007,05,24,04,24,6.20
2007,05,24,04,25,6.20
2007,05,24,04,26,6.20
2007,05,24,04,27,6.20
2007,05,24,04,28,6.20
2007,05,24,04,29,6.20
2007,05,24,04,30,6.20
2007,05,24,04,31,6.20
2007,05,24,04,32,6.10
2007,05,24,04,33,6.10
2007,05,24,04,34,6.10
2007,05,24,04,35,6.10
2007,05,24,04,36,6.10
2007,05,24,04,37,6.10
2007,05,24,04,38,6.10
2007,05,24,04,39,6.10
2007,05,24,04,40,6.10
2007,05,24,04,41,6.10
2007,05,24,04,42,6.10
2007,05,24,04,43,6.00
2007,05,24,04,44,6.00
2007,05,24,04,45,6.00
2007,05,24,04,46,6.00
2007,05,24,04,47,6.00
2007,05,24,04,48,6.00
2007,05,24,04,49,5.90
2007,05,24,04,50,5.90
2007,05,24,04,51,5.90
2007,05,24,04,52,5.90
2007,05,24,04,53,5.90
2007,05,24,04,54,5.90
2007,05,24,04,55,5.90
2007,05,24,04,56,5.90
2007,05,24,04,57,5.90
2007,05,24,04,58,5.90
2007,05,24,04,59,5.90
2007,05,24,05,00,5.90
2007,05,24,05,01,5.90
2007,05,24,05,02,5.80
2007,05,24,05,03,5.80
2007,05,24,05,04,5.80
2007,05,24,05,05,5.80
2007,05,24,05,06,5.80
2007,05,24,05,07,5.80
2007,05,24,05,08,5.80
2007,05,24,05,09,5.80
2007,05,24,05,10,5.90
2007,05,24,05,11,5.90
2007,05,24,05,12,5.90
2007,05,24,05,13,5.90
2007,05,24,05,14,5.90
2007,05,24,05,15,5.90
2007,05,24,05,16,5.90
2007,05,24,05,17,5.90
2007,05,24,05,18,5.90
2007,05,24,05,19,5.90
2007,05,24,05,20,5.90
2007,05,24,05,21,6.00
2007,05,24,05,22,6.10
2007,05,24,05,23,6.20
2007,05,24,05,24,6.30
2007,05,24,05,25,6.30
2007,05,24,05,26,6.30
2007,05,24,05,27,6.30
2007,05,24,05,28,6.40
2007,05,24,05,29,6.50
2007,05,24,05,30,6.50
2007,05,24,05,31,6.60
2007,05,24,05,32,6.70
2007,05,24,05,33,6.80
2007,05,24,05,34,6.80
2007,05,24,05,35,6.90
2007,05,24,05,36,6.90
2007,05,24,05,37,7.00
2007,05,24,05,38,7.00
2007,05,24,05,39,7.10
2007,05,24,05,40,7.10
2007,05,24,05,41,7.20
2007,05,24,05,42,7.20
2007,05,24,05,43,7.20
2007,05,24,05,44,7.20
2007,05,24,05,45,7.20
2007,05,24,05,46,7.20
2007,05,24,05,47,7.20
2007,05,24,05,48,7.20
2007,05,24,05,49,7.20
2007,05,24,05,50,7.30
2007,05,24,05,51,7.30
2007,05,24,05,52,7.20
2007,05,24,05,53,7.20
2007,05,24,05,54,7.20
2007,05,24,05,55,7.20
2007,05,24,05,56,7.20
2007,05,24,05,57,7.20
2007,05,24,05,58,7.20
2007,05,24,05,59,7.30
2007,05,24,06,00,7.30
2007,05,24,06,01,7.30
2007,05,24,06,02,7.30
2007,05,24,06,03,7.20
2007,05,24,06,04,7.20
2007,05,24,06,05,7.20
2007,05,24,06,06,7.10
2007,05,24,06,07,7.10
2007,05,24,06,08,7.00
2007,05,24,06,09,7.00
2007,05,24,06,10,7.00
2007,05,24,06,11,6.90
2007,05,24,06,12,6.90
2007,05,24,06,13,6.90
2007,05,24,06,14,6.90
2007,05,24,06,15,6.90
2007,05,24,06,16,6.90
2007,05,24,06,17,6.80
2007,05,24,06,18,6.80
2007,05,24,06,19,6.80
2007,05,24,06,20,6.80
2007,05,24,06,21,6.80
2007,05,24,06,22,6.80
2007,05,24,06,23,6.70
2007,05,24,06,24,6.70
2007,05,24,06,25,6.70
2007,05,24,06,26,6.70
2007,05,24,06,27,6.60
2007,05,24,06,28,6.60
2007,05,24,06,29,6.60
2007,05,24,06,30,6.60
2007,05,24,06,31,6.60
2007,05,24,06,32,6.60
2007,05,24,06,33,6.60
2007,05,24,06,34,6.60
2007,05,24,06,35,6.60
2007,05,24,06,36,6.60
2007,05,24,06,37,6.60
2007,05,24,06,38,6.60
2007,05,24,06,39,6.70
2007,05,24,06,40,6.70
2007,05,24,06,41,6.70
2007,05,24,06,42,6.80
2007,05,24,06,43,6.80
2007,05,24,06,44,6.80
2007,05,24,06,45,6.90
2007,05,24,06,46,6.90
2007,05,24,06,47,7.00
2007,05,24,06,48,7.00
2007,05,24,06,49,7.10
2007,05,24,06,50,7.10
2007,05,24,06,51,7.10
2007,05,24,06,52,7.20
2007,05,24,06,53,7.20
2007,05,24,06,54,7.20
2007,05,24,06,55,7.30
2007,05,24,06,56,7.30
2007,05,24,06,57,7.30
2007,05,24,06,58,7.40
2007,05,24,06,59,7.40
2007,05,24,07,00,7.40
2007,05,24,07,01,7.50
2007,05,24,07,02,7.50
2007,05,24,07,03,7.60
2007,05,24,07,04,7.70
2007,05,24,07,05,7.70
2007,05,24,07,06,7.80
2007,05,24,07,07,7.90
2007,05,24,07,08,7.90
2007,05,24,07,09,8.00
2007,05,24,07,10,8.00
2007,05,24,07,11,8.10
2007,05,24,07,12,8.10
2007,05,24,07,13,8.20
2007,05,24,07,14,8.20
2007,05,24,07,15,8.30
2007,05,24,07,16,8.40
2007,05,24,07,17,8.50
2007,05,24,07,18,8.60
2007,05,24,07,19,8.70
2007,05,24,07,20,8.80
2007,05,24,07,21,8.90
2007,05,24,07,22,9.10
2007,05,24,07,23,9.20
2007,05,24,07,24,9.30
2007,05,24,07,25,9.30
2007,05,24,07,26,9.40
2007,05,24,07,27,9.50
2007,05,24,07,28,9.60
2007,05,24,07,29,9.60
2007,05,24,07,30,9.70
2007,05,24,07,31,9.80
2007,05,24,07,32,9.90
2007,05,24,07,33,9.90
2007,05,24,07,34,10.00
2007,05,24,07,35,10.10
2007,05,24,07,36,10.20
2007,05,24,07,37,10.20
2007,05,24,07,38,10.30
2007,05,24,07,39,10.40
2007,05,24,07,40,10.50
2007,05,24,07,41,10.60
2007,05,24,07,42,10.70
2007,05,24,07,43,10.80
2007,05,24,07,44,10.80
2007,05,24,07,45,10.90
2007,05,24,07,46,11.00
2007,05,24,07,47,11.10
2007,05,24,07,48,11.20
2007,05,24,07,49,11.30
2007,05,24,07,50,11.40
2007,05,24,07,51,11.50
2007,05,24,07,52,11.60
2007,05,24,07,53,11.70
2007,05,24,07,54,11.80
2007,05,24,07,55,11.90
2007,05,24,07,56,12.00
2007,05,24,07,57,12.10
2007,05,24,07,58,12.20
2007,05,24,07,59,12.20
2007,05,24,08,00,12.30
2007,05,24,08,01,12.40
2007,05,24,08,02,12.50
2007,05,24,08,03,12.60
2007,05,24,08,04,12.70
2007,05,24,08,05,12.80
2007,05,24,08,06,12.90
2007,05,24,08,07,13.00
2007,05,24,08,08,13.10
2007,05,24,08,09,13.10
2007,05,24,08,10,13.20
2007,05,24,08,11,13.30
2007,05,24,08,12,13.30
2007,05,24,08,13,13.30
2007,05,24,08,14,13.30
2007,05,24,08,15,13.30
2007,05,24,08,16,13.40
2007,05,24,08,17,13.40
2007,05,24,08,18,13.50
2007,05,24,08,19,13.60
2007,05,24,08,20,13.70
2007,05,24,08,21,13.80
2007,05,24,08,22,13.90
2007,05,24,08,23,14.00
2007,05,24,08,24,14.10
2007,05,24,08,25,14.10
2007,05,24,08,26,14.20
2007,05,24,08,27,14.30
2007,05,24,08,28,14.40
2007,05,24,08,29,14.40
2007,05,24,08,30,14.40
2007,05,24,08,31,14.40
2007,05,24,08,32,14.40
2007,05,24,08,33,14.50
2007,05,24,08,34,14.50
2007,05,24,08,35,14.60
2007,05,24,08,36,14.60
2007,05,24,08,37,14.80
2007,05,24,08,38,14.90
2007,05,24,08,39,15.00
2007,05,24,08,40,15.00
2007,05,24,08,41,15.00
2007,05,24,08,42,15.00
2007,05,24,08,43,15.00
2007,05,24,08,44,15.10
2007,05,24,08,45,15.10
2007,05,24,08,46,15.20
2007,05,24,08,47,15.20
2007,05,24,08,48,15.20
2007,05,24,08,49,15.20
2007,05,24,08,50,15.20
2007,05,24,08,51,15.30
2007,05,24,08,52,15.40
2007,05,24,08,53,15.50
2007,05,24,08,54,15.60
2007,05,24,08,55,15.70
2007,05,24,08,56,15.80
2007,05,24,08,57,15.80
2007,05,24,08,58,15.80
2007,05,24,08,59,15.70
2007,05,24,09,00,15.80
2007,05,24,09,01,15.80
2007,05,24,09,02,15.90
2007,05,24,09,03,15.90
2007,05,24,09,04,16.00
2007,05,24,09,05,15.90
2007,05,24,09,06,16.00
2007,05,24,09,07,16.00
2007,05,24,09,08,16.10
2007,05,24,09,09,16.20
2007,05,24,09,10,16.30
2007,05,24,09,11,16.40
2007,05,24,09,12,16.40
2007,05,24,09,13,16.50
2007,05,24,09,14,16.60
2007,05,24,09,15,16.70
2007,05,24,09,16,16.70
2007,05,24,09,17,16.80
2007,05,24,09,18,16.80
2007,05,24,09,19,16.80
2007,05,24,09,20,16.70
2007,05,24,09,21,16.60
2007,05,24,09,22,16.60
2007,05,24,09,23,16.50
2007,05,24,09,24,16.40
2007,05,24,09,25,16.40
2007,05,24,09,26,16.30
2007,05,24,09,27,16.30
2007,05,24,09,28,16.30
2007,05,24,09,29,16.30
2007,05,24,09,30,16.20
2007,05,24,09,31,16.30
2007,05,24,09,32,16.40
2007,05,24,09,33,16.50
2007,05,24,09,34,16.50
2007,05,24,09,35,16.60
2007,05,24,09,36,16.60
2007,05,24,09,37,16.60
2007,05,24,09,38,16.60
2007,05,24,09,39,16.60
2007,05,24,09,40,16.50
2007,05,24,09,41,16.50
2007,05,24,09,42,16.50
2007,05,24,09,43,16.50
2007,05,24,09,44,16.70
2007,05,24,09,45,16.70
2007,05,24,09,46,16.80
2007,05,24,09,47,16.80
2007,05,24,09,48,16.80
2007,05,24,09,49,16.80
2007,05,24,09,50,16.80
2007,05,24,09,51,16.90
2007,05,24,09,52,17.00
2007,05,24,09,53,17.00
2007,05,24,09,54,17.00
2007,05,24,09,55,17.00
2007,05,24,09,56,17.10
2007,05,24,09,57,17.10
2007,05,24,09,58,17.20
2007,05,24,09,59,17.10
2007,05,24,10,00,17.00
2007,05,24,10,01,16.90
2007,05,24,10,02,16.90
2007,05,24,10,03,16.90
2007,05,24,10,04,16.90
2007,05,24,10,05,16.90
2007,05,24,10,06,16.90
2007,05,24,10,07,16.90
2007,05,24,10,08,16.80
2007,05,24,10,09,16.80
2007,05,24,10,10,16.80
2007,05,24,10,11,16.80
2007,05,24,10,12,16.80
2007,05,24,10,13,16.80
2007,05,24,10,14,16.70
2007,05,24,10,15,16.60
2007,05,24,10,16,16.50
2007,05,24,10,17,16.40
2007,05,24,10,18,16.50
2007,05,24,10,19,16.60
2007,05,24,10,20,16.70
2007,05,24,10,21,16.80
2007,05,24,10,22,16.90
2007,05,24,10,23,17.00
2007,05,24,10,24,17.00
2007,05,24,10,25,17.10
2007,05,24,10,26,17.10
2007,05,24,10,27,17.10
2007,05,24,10,28,17.00
2007,05,24,10,29,17.00
2007,05,24,10,30,17.00
2007,05,24,10,31,17.10
2007,05,24,10,32,17.20
2007,05,24,10,33,17.20
2007,05,24,10,34,17.20
2007,05,24,10,35,17.20
2007,05,24,10,36,17.30
2007,05,24,10,37,17.40
2007,05,24,10,38,17.50
2007,05,24,10,39,17.60
2007,05,24,10,40,17.60
2007,05,24,10,41,17.60
2007,05,24,10,42,17.50
2007,05,24,10,43,17.50
2007,05,24,10,44,17.50
2007,05,24,10,45,17.40
2007,05,24,10,46,17.50
2007,05,24,10,47,17.60
2007,05,24,10,48,17.70
2007,05,24,10,49,17.80
2007,05,24,10,50,17.80
2007,05,24,10,51,17.80
2007,05,24,10,52,17.80
2007,05,24,10,53,17.80
2007,05,24,10,54,17.90
2007,05,24,10,55,17.90
2007,05,24,10,56,17.80
2007,05,24,10,57,17.80
2007,05,24,10,58,17.70
2007,05,24,10,59,17.70
2007,05,24,11,00,17.80
2007,05,24,11,01,17.80
2007,05,24,11,02,17.70
2007,05,24,11,03,17.50
2007,05,24,11,04,17.30
2007,05,24,11,05,17.30
2007,05,24,11,06,17.10
2007,05,24,11,07,16.90
2007,05,24,11,08,16.90
2007,05,24,11,09,17.00
2007,05,24,11,10,17.10
2007,05,24,11,11,17.30
2007,05,24,11,12,17.40
2007,05,24,11,13,17.60
2007,05,24,11,14,17.80
2007,05,24,11,15,17.80
2007,05,24,11,16,17.60
2007,05,24,11,17,17.40
2007,05,24,11,18,17.40
2007,05,24,11,19,17.20
2007,05,24,11,20,17.00
2007,05,24,11,21,16.90
2007,05,24,11,22,16.70
2007,05,24,11,23,16.50
2007,05,24,11,24,16.40
2007,05,24,11,25,16.40
2007,05,24,11,26,16.30
2007,05,24,11,27,16.30
2007,05,24,11,28,16.40
2007,05,24,11,29,16.40
2007,05,24,11,30,16.50
2007,05,24,11,31,16.60
2007,05,24,11,32,16.60
2007,05,24,11,33,16.70
2007,05,24,11,34,16.80
2007,05,24,11,35,16.90
2007,05,24,11,36,17.00
2007,05,24,11,37,17.00
2007,05,24,11,38,17.20
2007,05,24,11,39,17.40
2007,05,24,11,40,17.40
2007,05,24,11,41,17.30
2007,05,24,11,42,17.20
2007,05,24,11,43,17.20
2007,05,24,11,44,17.30
2007,05,24,11,45,17.30
2007,05,24,11,46,17.40
2007,05,24,11,47,17.40
2007,05,24,11,48,17.30
2007,05,24,11,49,17.10
2007,05,24,11,50,17.10
2007,05,24,11,51,17.00
2007,05,24,11,52,17.00
2007,05,24,11,53,16.90
2007,05,24,11,54,16.90
2007,05,24,11,55,16.90
2007,05,24,11,56,17.00
2007,05,24,11,57,17.10
2007,05,24,11,58,17.20
2007,05,24,11,59,17.30
2007,05,24,12,00,17.50
2007,05,24,12,01,17.60
2007,05,24,12,02,17.70
2007,05,24,12,03,17.60
2007,05,24,12,04,17.60
2007,05,24,12,05,17.50
2007,05,24,12,06,17.40
2007,05,24,12,07,17.30
2007,05,24,12,08,17.30
2007,05,24,12,09,17.30
2007,05,24,12,10,17.20
2007,05,24,12,11,17.30
2007,05,24,12,12,17.40
2007,05,24,12,13,17.50
2007,05,24,12,14,17.60
2007,05,24,12,15,17.70
2007,05,24,12,16,17.80
2007,05,24,12,17,17.80
2007,05,24,12,18,17.80
2007,05,24,12,19,17.70
2007,05,24,12,20,17.70
2007,05,24,12,21,17.60
2007,05,24,12,22,17.50
2007,05,24,12,23,17.50
2007,05,24,12,24,17.60
2007,05,24,12,25,17.60
2007,05,24,12,26,17.60
2007,05,24,12,27,17.60
2007,05,24,12,28,17.50
2007,05,24,12,29,17.40
2007,05,24,12,30,17.40
2007,05,24,12,31,17.50
2007,05,24,12,32,17.50
2007,05,24,12,33,17.50
2007,05,24,12,34,17.60
2007,05,24,12,35,17.60
2007,05,24,12,36,17.60
2007,05,24,12,37,17.70
2007,05,24,12,38,17.80
2007,05,24,12,39,17.90
2007,05,24,12,40,18.10
2007,05,24,12,41,18.40
2007,05,24,12,42,18.50
2007,05,24,12,43,18.70
2007,05,24,12,44,18.70
2007,05,24,12,45,18.90
2007,05,24,12,46,19.10
2007,05,24,12,47,19.20
2007,05,24,12,48,19.30
2007,05,24,12,49,19.30
2007,05,24,12,50,19.10
2007,05,24,12,51,18.80
2007,05,24,12,52,18.60
2007,05,24,12,53,18.50
2007,05,24,12,54,18.40
2007,05,24,12,55,18.40
2007,05,24,12,56,18.40
2007,05,24,12,57,18.40
2007,05,24,12,58,18.30
2007,05,24,12,59,18.20
2007,05,24,13,00,18.20
2007,05,24,13,01,18.20
2007,05,24,13,02,18.10
2007,05,24,13,03,18.00
2007,05,24,13,04,18.00
2007,05,24,13,05,18.20
2007,05,24,13,06,18.30
2007,05,24,13,07,18.40
2007,05,24,13,08,18.50
2007,05,24,13,09,18.50
2007,05,24,13,10,18.60
2007,05,24,13,11,18.70
2007,05,24,13,12,18.70
2007,05,24,13,13,18.80
2007,05,24,13,14,18.80
2007,05,24,13,15,18.80
2007,05,24,13,16,18.70
2007,05,24,13,17,18.80
2007,05,24,13,18,18.80
2007,05,24,13,19,18.90
2007,05,24,13,20,18.90
2007,05,24,13,21,18.90
2007,05,24,13,22,18.90
2007,05,24,13,23,19.00
2007,05,24,13,24,19.10
2007,05,24,13,25,19.10
2007,05,24,13,26,19.10
2007,05,24,13,27,19.10
2007,05,24,13,28,19.10
2007,05,24,13,29,19.10
2007,05,24,13,30,19.10
2007,05,24,13,31,19.20
2007,05,24,13,32,19.20
2007,05,24,13,33,19.10
2007,05,24,13,34,18.90
2007,05,24,13,35,18.70
2007,05,24,13,36,18.60
2007,05,24,13,37,18.60
2007,05,24,13,38,18.70
2007,05,24,13,39,18.80
2007,05,24,13,40,18.90
2007,05,24,13,41,19.10
2007,05,24,13,42,19.10
2007,05,24,13,43,19.00
2007,05,24,13,44,19.00
2007,05,24,13,45,19.10
2007,05,24,13,46,19.20
2007,05,24,13,47,19.20
2007,05,24,13,48,19.20
2007,05,24,13,49,19.20
2007,05,24,13,50,19.20
2007,05,24,13,51,19.30
2007,05,24,13,52,19.50
2007,05,24,13,53,19.60
2007,05,24,13,54,19.70
2007,05,24,13,55,19.80
2007,05,24,13,56,19.90
2007,05,24,13,57,20.00
2007,05,24,13,58,19.90
2007,05,24,13,59,19.90
2007,05,24,14,00,20.00
2007,05,24,14,01,20.00
2007,05,24,14,02,19.90
2007,05,24,14,03,20.00
2007,05,24,14,04,20.00
2007,05,24,14,05,20.10
2007,05,24,14,06,20.20
2007,05,24,14,07,20.20
2007,05,24,14,08,20.30
2007,05,24,14,09,20.30
2007,05,24,14,10,20.40
2007,05,24,14,11,20.40
2007,05,24,14,12,20.30
2007,05,24,14,13,20.20
2007,05,24,14,14,20.00
2007,05,24,14,15,19.90
2007,05,24,14,16,20.00
2007,05,24,14,17,20.10
2007,05,24,14,18,20.30
2007,05,24,14,19,20.40
2007,05,24,14,20,20.50
2007,05,24,14,21,20.40
2007,05,24,14,22,20.40
2007,05,24,14,23,20.40
2007,05,24,14,24,20.40
2007,05,24,14,25,20.40
2007,05,24,14,26,20.50
2007,05,24,14,27,20.30
2007,05,24,14,28,20.10
2007,05,24,14,29,20.00
2007,05,24,14,30,20.10
2007,05,24,14,31,20.00
2007,05,24,14,32,20.00
2007,05,24,14,33,20.10
2007,05,24,14,34,20.10
2007,05,24,14,35,20.20
2007,05,24,14,36,20.10
2007,05,24,14,37,20.10
2007,05,24,14,38,20.20
2007,05,24,14,39,20.20
2007,05,24,14,40,20.00
2007,05,24,14,41,19.90
2007,05,24,14,42,19.80
2007,05,24,14,43,19.70
2007,05,24,14,44,19.70
2007,05,24,14,45,19.60
2007,05,24,14,46,19.70
2007,05,24,14,47,19.70
2007,05,24,14,48,19.50
2007,05,24,14,49,19.40
2007,05,24,14,50,19.50
2007,05,24,14,51,19.50
2007,05,24,14,52,19.60
2007,05,24,14,53,19.50
2007,05,24,14,54,19.30
2007,05,24,14,55,19.20
2007,05,24,14,56,19.10
2007,05,24,14,57,19.10
2007,05,24,14,58,19.10
2007,05,24,14,59,19.00
2007,05,24,15,00,19.00
2007,05,24,15,01,19.00
2007,05,24,15,02,19.00
2007,05,24,15,03,19.10
2007,05,24,15,04,19.20
2007,05,24,15,05,19.20
2007,05,24,15,06,19.30
2007,05,24,15,07,19.40
2007,05,24,15,08,19.50
2007,05,24,15,09,19.50
2007,05,24,15,10,19.50
2007,05,24,15,11,19.50
2007,05,24,15,12,19.50
2007,05,24,15,13,19.50
2007,05,24,15,14,19.60
2007,05,24,15,15,19.50
2007,05,24,15,16,19.30
2007,05,24,15,17,19.30
2007,05,24,15,18,19.30
2007,05,24,15,19,19.30
2007,05,24,15,20,19.50
2007,05,24,15,21,19.50
2007,05,24,15,22,19.60
2007,05,24,15,23,19.70
2007,05,24,15,24,19.70
2007,05,24,15,25,19.70
2007,05,24,15,26,19.70
2007,05,24,15,27,19.70
2007,05,24,15,28,19.70
2007,05,24,15,29,19.80
2007,05,24,15,30,19.90
2007,05,24,15,31,19.90
2007,05,24,15,32,19.90
2007,05,24,15,33,19.80
2007,05,24,15,34,19.80
2007,05,24,15,35,19.70
2007,05,24,15,36,19.70
2007,05,24,15,37,19.70
2007,05,24,15,38,19.80
2007,05,24,15,39,19.90
2007,05,24,15,40,20.00
2007,05,24,15,41,20.20
2007,05,24,15,42,20.10
2007,05,24,15,43,20.00
2007,05,24,15,44,20.10
2007,05,24,15,45,20.10
2007,05,24,15,46,20.10
2007,05,24,15,47,20.10
2007,05,24,15,48,20.10
2007,05,24,15,49,20.10
2007,05,24,15,50,20.10
2007,05,24,15,51,20.30
2007,05,24,15,52,20.40
2007,05,24,15,53,20.40
2007,05,24,15,54,20.50
2007,05,24,15,55,20.60
2007,05,24,15,56,20.80
2007,05,24,15,57,20.80
2007,05,24,15,58,20.70
2007,05,24,15,59,20.50
2007,05,24,16,00,20.50
2007,05,24,16,01,20.60
2007,05,24,16,02,20.60
2007,05,24,16,03,20.60
2007,05,24,16,04,20.70
2007,05,24,16,05,20.60
2007,05,24,16,06,20.50
2007,05,24,16,07,20.40
2007,05,24,16,08,20.30
2007,05,24,16,09,20.30
2007,05,24,16,10,20.20
2007,05,24,16,11,20.10
2007,05,24,16,12,19.90
2007,05,24,16,13,19.90
2007,05,24,16,14,19.80
2007,05,24,16,15,19.80
2007,05,24,16,16,19.80
2007,05,24,16,17,19.90
2007,05,24,16,18,20.00
2007,05,24,16,19,20.00
2007,05,24,16,20,19.90
2007,05,24,16,21,19.90
2007,05,24,16,22,19.80
2007,05,24,16,23,19.80
2007,05,24,16,24,19.70
2007,05,24,16,25,19.60
2007,05,24,16,26,19.60
2007,05,24,16,27,19.50
2007,05,24,16,28,19.40
2007,05,24,16,29,19.30
2007,05,24,16,30,19.30
2007,05,24,16,31,19.20
2007,05,24,16,32,19.20
2007,05,24,16,33,19.10
2007,05,24,16,34,19.10
2007,05,24,16,35,19.00
2007,05,24,16,36,19.00
2007,05,24,16,37,18.90
2007,05,24,16,38,19.00
2007,05,24,16,39,19.00
2007,05,24,16,40,18.90
2007,05,24,16,41,18.90
2007,05,24,16,42,18.90
2007,05,24,16,43,18.90
2007,05,24,16,44,19.00
2007,05,24,16,45,19.10
2007,05,24,16,46,19.20
2007,05,24,16,47,19.40
2007,05,24,16,48,19.30
2007,05,24,16,49,19.30
2007,05,24,16,50,19.30
2007,05,24,16,51,19.30
2007,05,24,16,52,19.30
2007,05,24,16,53,19.30
2007,05,24,16,54,19.40
2007,05,24,16,55,19.40
2007,05,24,16,56,19.40
2007,05,24,16,57,19.40
2007,05,24,16,58,19.40
2007,05,24,16,59,19.50
2007,05,24,17,00,19.60
2007,05,24,17,01,19.70
2007,05,24,17,02,19.80
2007,05,24,17,03,19.80
2007,05,24,17,04,19.90
2007,05,24,17,05,19.80
2007,05,24,17,06,19.60
2007,05,24,17,07,19.60
2007,05,24,17,08,19.60
2007,05,24,17,09,19.60
2007,05,24,17,10,19.70
2007,05,24,17,11,19.80
2007,05,24,17,12,19.90
2007,05,24,17,13,20.00
2007,05,24,17,14,20.10
2007,05,24,17,15,20.10
2007,05,24,17,16,20.00
2007,05,24,17,17,20.00
2007,05,24,17,18,20.00
2007,05,24,17,19,20.20
2007,05,24,17,20,20.30
2007,05,24,17,21,20.40
2007,05,24,17,22,20.30
2007,05,24,17,23,20.20
2007,05,24,17,24,20.30
2007,05,24,17,25,20.30
2007,05,24,17,26,20.20
2007,05,24,17,27,20.20
2007,05,24,17,28,20.20
2007,05,24,17,29,20.20
2007,05,24,17,30,20.30
2007,05,24,17,31,20.30
2007,05,24,17,32,20.40
2007,05,24,17,33,20.50
2007,05,24,17,34,20.60
2007,05,24,17,35,20.50
2007,05,24,17,36,20.50
2007,05,24,17,37,20.50
2007,05,24,17,38,20.40
2007,05,24,17,39,20.40